Year,Month,Day,Hour,Minute,Value (Times are PST for temperature in C)
2012,06,25,00,00,10.80
2012,06,25,00,01,10.70
2012,06,25,00,02,10.70
2012,06,25,00,03,10.70
2012,06,25,00,04,10.70
2012,06,25,00,05,10.70
2012,06,25,00,06,10.70
2012,06,25,00,07,10.70
2012,06,25,00,08,10.60
2012,06,25,00,09,10.60
2012,06,25,00,10,10.60
2012,06,25,00,11,10.60
2012,06,25,00,12,10.60
2012,06,25,00,13,10.60
2012,06,25,00,14,10.60
2012,06,25,00,15,10.60
2012,06,25,00,16,10.60
2012,06,25,00,17,10.60
2012,06,25,00,18,10.50
2012,06,25,00,19,10.40
2012,06,25,00,20,10.40
2012,06,25,00,21,10.40
2012,06,25,00,22,10.40
2012,06,25,00,23,10.40
2012,06,25,00,24,10.40
2012,06,25,00,25,10.40
2012,06,25,00,26,10.40
2012,06,25,00,27,10.40
2012,06,25,00,28,10.40
2012,06,25,00,29,10.40
2012,06,25,00,30,10.40
2012,06,25,00,31,10.40
2012,06,25,00,32,10.40
2012,06,25,00,33,10.40
2012,06,25,00,34,10.40
2012,06,25,00,35,10.40
2012,06,25,00,36,10.40
2012,06,25,00,37,10.40
2012,06,25,00,38,10.40
2012,06,25,00,39,10.40
2012,06,25,00,40,10.40
2012,06,25,00,41,10.40
2012,06,25,00,42,10.40
2012,06,25,00,43,10.40
2012,06,25,00,44,10.40
2012,06,25,00,45,10.40
2012,06,25,00,46,10.40
2012,06,25,00,47,10.30
2012,06,25,00,48,10.30
2012,06,25,00,49,10.30
2012,06,25,00,50,10.30
2012,06,25,00,51,10.30
2012,06,25,00,52,10.30
2012,06,25,00,53,10.20
2012,06,25,00,54,10.20
2012,06,25,00,55,10.20
2012,06,25,00,56,10.20
2012,06,25,00,57,10.20
2012,06,25,00,58,10.20
2012,06,25,00,59,10.20
2012,06,25,01,00,10.10
2012,06,25,01,01,10.10
2012,06,25,01,02,10.10
2012,06,25,01,03,10.10
2012,06,25,01,04,10.10
2012,06,25,01,05,10.10
2012,06,25,01,06,10.10
2012,06,25,01,07,10.10
2012,06,25,01,08,10.10
2012,06,25,01,09,10.10
2012,06,25,01,10,10.10
2012,06,25,01,11,10.10
2012,06,25,01,12,10.10
2012,06,25,01,13,10.10
2012,06,25,01,14,10.10
2012,06,25,01,15,10.10
2012,06,25,01,16,10.10
2012,06,25,01,17,10.00
2012,06,25,01,18,9.90
2012,06,25,01,19,9.90
2012,06,25,01,20,9.90
2012,06,25,01,21,9.90
2012,06,25,01,22,9.90
2012,06,25,01,23,9.90
2012,06,25,01,24,9.90
2012,06,25,01,25,9.90
2012,06,25,01,26,9.90
2012,06,25,01,27,9.90
2012,06,25,01,28,9.90
2012,06,25,01,29,9.90
2012,06,25,01,30,9.90
2012,06,25,01,31,9.90
2012,06,25,01,32,9.90
2012,06,25,01,33,9.90
2012,06,25,01,34,9.90
2012,06,25,01,35,9.90
2012,06,25,01,36,9.90
2012,06,25,01,37,9.90
2012,06,25,01,38,9.90
2012,06,25,01,39,9.90
2012,06,25,01,40,9.90
2012,06,25,01,41,9.80
2012,06,25,01,42,9.80
2012,06,25,01,43,9.80
2012,06,25,01,44,9.80
2012,06,25,01,45,9.80
2012,06,25,01,46,9.80
2012,06,25,01,47,9.70
2012,06,25,01,48,9.70
2012,06,25,01,49,9.70
2012,06,25,01,50,9.70
2012,06,25,01,51,9.70
2012,06,25,01,52,9.70
2012,06,25,01,53,9.70
2012,06,25,01,54,9.60
2012,06,25,01,55,9.60
2012,06,25,01,56,9.60
2012,06,25,01,57,9.60
2012,06,25,01,58,9.60
2012,06,25,01,59,9.60
2012,06,25,02,00,9.50
2012,06,25,02,01,9.50
2012,06,25,02,02,9.50
2012,06,25,02,03,9.50
2012,06,25,02,04,9.40
2012,06,25,02,05,9.40
2012,06,25,02,06,9.40
2012,06,25,02,07,9.40
2012,06,25,02,08,9.30
2012,06,25,02,09,9.30
2012,06,25,02,10,9.20
2012,06,25,02,11,9.20
2012,06,25,02,12,9.20
2012,06,25,02,13,9.20
2012,06,25,02,14,9.20
2012,06,25,02,15,9.20
2012,06,25,02,16,9.20
2012,06,25,02,17,9.20
2012,06,25,02,18,9.20
2012,06,25,02,19,9.20
2012,06,25,02,20,9.20
2012,06,25,02,21,9.20
2012,06,25,02,22,9.20
2012,06,25,02,23,9.20
2012,06,25,02,24,9.20
2012,06,25,02,25,9.20
2012,06,25,02,26,9.20
2012,06,25,02,27,9.20
2012,06,25,02,28,9.20
2012,06,25,02,29,9.20
2012,06,25,02,30,9.20
2012,06,25,02,31,9.20
2012,06,25,02,32,9.20
2012,06,25,02,33,9.20
2012,06,25,02,34,9.20
2012,06,25,02,35,9.20
2012,06,25,02,36,9.20
2012,06,25,02,37,9.30
2012,06,25,02,38,9.30
2012,06,25,02,39,9.30
2012,06,25,02,40,9.30
2012,06,25,02,41,9.30
2012,06,25,02,42,9.30
2012,06,25,02,43,9.30
2012,06,25,02,44,9.30
2012,06,25,02,45,9.30
2012,06,25,02,46,9.40
2012,06,25,02,47,9.40
2012,06,25,02,48,9.40
2012,06,25,02,49,9.40
2012,06,25,02,50,9.40
2012,06,25,02,51,9.40
2012,06,25,02,52,9.40
2012,06,25,02,53,9.40
2012,06,25,02,54,9.40
2012,06,25,02,55,9.40
2012,06,25,02,56,9.40
2012,06,25,02,57,9.40
2012,06,25,02,58,9.40
2012,06,25,02,59,9.40
2012,06,25,03,00,9.40
2012,06,25,03,01,9.40
2012,06,25,03,02,9.40
2012,06,25,03,03,9.40
2012,06,25,03,04,9.40
2012,06,25,03,05,9.40
2012,06,25,03,06,9.40
2012,06,25,03,07,9.40
2012,06,25,03,08,9.40
2012,06,25,03,09,9.40
2012,06,25,03,10,9.40
2012,06,25,03,11,9.40
2012,06,25,03,12,9.40
2012,06,25,03,13,9.50
2012,06,25,03,14,9.40
2012,06,25,03,15,9.40
2012,06,25,03,16,9.40
2012,06,25,03,17,9.40
2012,06,25,03,18,9.40
2012,06,25,03,19,9.40
2012,06,25,03,20,9.30
2012,06,25,03,21,9.30
2012,06,25,03,22,9.30
2012,06,25,03,23,9.30
2012,06,25,03,24,9.30
2012,06,25,03,25,9.30
2012,06,25,03,26,9.30
2012,06,25,03,27,9.30
2012,06,25,03,28,9.40
2012,06,25,03,29,9.40
2012,06,25,03,30,9.40
2012,06,25,03,31,9.40
2012,06,25,03,32,9.40
2012,06,25,03,33,9.40
2012,06,25,03,34,9.40
2012,06,25,03,35,9.40
2012,06,25,03,36,9.40
2012,06,25,03,37,9.40
2012,06,25,03,38,9.40
2012,06,25,03,39,9.40
2012,06,25,03,40,9.40
2012,06,25,03,41,9.50
2012,06,25,03,42,9.50
2012,06,25,03,43,9.50
2012,06,25,03,44,9.40
2012,06,25,03,45,9.40
2012,06,25,03,46,9.40
2012,06,25,03,47,9.40
2012,06,25,03,48,9.40
2012,06,25,03,49,9.40
2012,06,25,03,50,9.40
2012,06,25,03,51,9.30
2012,06,25,03,52,9.30
2012,06,25,03,53,9.30
2012,06,25,03,54,9.30
2012,06,25,03,55,9.40
2012,06,25,03,56,9.40
2012,06,25,03,57,9.40
2012,06,25,03,58,9.40
2012,06,25,03,59,9.40
2012,06,25,04,00,9.40
2012,06,25,04,01,9.40
2012,06,25,04,02,9.50
2012,06,25,04,03,9.50
2012,06,25,04,04,9.50
2012,06,25,04,05,9.50
2012,06,25,04,06,9.50
2012,06,25,04,07,9.40
2012,06,25,04,08,9.40
2012,06,25,04,09,9.50
2012,06,25,04,10,9.50
2012,06,25,04,11,9.50
2012,06,25,04,12,9.50
2012,06,25,04,13,9.50
2012,06,25,04,14,9.50
2012,06,25,04,15,9.50
2012,06,25,04,16,9.50
2012,06,25,04,17,9.50
2012,06,25,04,18,9.40
2012,06,25,04,19,9.40
2012,06,25,04,20,9.40
2012,06,25,04,21,9.40
2012,06,25,04,22,9.30
2012,06,25,04,23,9.30
2012,06,25,04,24,9.30
2012,06,25,04,25,9.30
2012,06,25,04,26,9.30
2012,06,25,04,27,9.30
2012,06,25,04,28,9.30
2012,06,25,04,29,9.30
2012,06,25,04,30,9.30
2012,06,25,04,31,9.30
2012,06,25,04,32,9.30
2012,06,25,04,33,9.30
2012,06,25,04,34,9.30
2012,06,25,04,35,9.30
2012,06,25,04,36,9.20
2012,06,25,04,37,9.20
2012,06,25,04,38,9.20
2012,06,25,04,39,9.20
2012,06,25,04,40,9.20
2012,06,25,04,41,9.20
2012,06,25,04,42,9.20
2012,06,25,04,43,9.20
2012,06,25,04,44,9.10
2012,06,25,04,45,9.10
2012,06,25,04,46,9.10
2012,06,25,04,47,9.10
2012,06,25,04,48,9.10
2012,06,25,04,49,9.10
2012,06,25,04,50,9.10
2012,06,25,04,51,9.10
2012,06,25,04,52,9.10
2012,06,25,04,53,9.20
2012,06,25,04,54,9.20
2012,06,25,04,55,9.20
2012,06,25,04,56,9.20
2012,06,25,04,57,9.20
2012,06,25,04,58,9.30
2012,06,25,04,59,9.30
2012,06,25,05,00,9.30
2012,06,25,05,01,9.30
2012,06,25,05,02,9.30
2012,06,25,05,03,9.40
2012,06,25,05,04,9.30
2012,06,25,05,05,9.30
2012,06,25,05,06,9.30
2012,06,25,05,07,9.30
2012,06,25,05,08,9.30
2012,06,25,05,09,9.30
2012,06,25,05,10,9.30
2012,06,25,05,11,9.20
2012,06,25,05,12,9.20
2012,06,25,05,13,9.20
2012,06,25,05,14,9.20
2012,06,25,05,15,9.20
2012,06,25,05,16,9.10
2012,06,25,05,17,9.00
2012,06,25,05,18,9.00
2012,06,25,05,19,9.00
2012,06,25,05,20,9.00
2012,06,25,05,21,8.90
2012,06,25,05,22,8.90
2012,06,25,05,23,8.90
2012,06,25,05,24,8.90
2012,06,25,05,25,8.90
2012,06,25,05,26,8.90
2012,06,25,05,27,8.90
2012,06,25,05,28,8.90
2012,06,25,05,29,8.90
2012,06,25,05,30,8.90
2012,06,25,05,31,8.90
2012,06,25,05,32,8.90
2012,06,25,05,33,8.90
2012,06,25,05,34,8.80
2012,06,25,05,35,8.80
2012,06,25,05,36,8.80
2012,06,25,05,37,8.80
2012,06,25,05,38,8.80
2012,06,25,05,39,8.80
2012,06,25,05,40,8.80
2012,06,25,05,41,8.80
2012,06,25,05,42,8.90
2012,06,25,05,43,8.90
2012,06,25,05,44,8.90
2012,06,25,05,45,8.90
2012,06,25,05,46,8.90
2012,06,25,05,47,8.90
2012,06,25,05,48,8.90
2012,06,25,05,49,8.90
2012,06,25,05,50,8.90
2012,06,25,05,51,8.90
2012,06,25,05,52,8.90
2012,06,25,05,53,9.00
2012,06,25,05,54,9.00
2012,06,25,05,55,9.00
2012,06,25,05,56,9.00
2012,06,25,05,57,8.90
2012,06,25,05,58,8.90
2012,06,25,05,59,8.90
2012,06,25,06,00,8.90
2012,06,25,06,01,8.80
2012,06,25,06,02,8.80
2012,06,25,06,03,8.80
2012,06,25,06,04,8.80
2012,06,25,06,05,8.90
2012,06,25,06,06,9.00
2012,06,25,06,07,9.00
2012,06,25,06,08,9.10
2012,06,25,06,09,9.20
2012,06,25,06,10,9.20
2012,06,25,06,11,9.30
2012,06,25,06,12,9.40
2012,06,25,06,13,9.40
2012,06,25,06,14,9.50
2012,06,25,06,15,9.50
2012,06,25,06,16,9.50
2012,06,25,06,17,9.60
2012,06,25,06,18,9.60
2012,06,25,06,19,9.70
2012,06,25,06,20,9.70
2012,06,25,06,21,9.70
2012,06,25,06,22,9.70
2012,06,25,06,23,9.70
2012,06,25,06,24,9.70
2012,06,25,06,25,9.80
2012,06,25,06,26,9.90
2012,06,25,06,27,9.90
2012,06,25,06,28,9.90
2012,06,25,06,29,10.10
2012,06,25,06,30,10.10
2012,06,25,06,31,10.10
2012,06,25,06,32,10.20
2012,06,25,06,33,10.30
2012,06,25,06,34,10.30
2012,06,25,06,35,10.40
2012,06,25,06,36,10.40
2012,06,25,06,37,10.50
2012,06,25,06,38,10.60
2012,06,25,06,39,10.60
2012,06,25,06,40,10.70
2012,06,25,06,41,10.70
2012,06,25,06,42,10.80
2012,06,25,06,43,10.90
2012,06,25,06,44,10.90
2012,06,25,06,45,10.90
2012,06,25,06,46,11.00
2012,06,25,06,47,11.10
2012,06,25,06,48,11.10
2012,06,25,06,49,11.10
2012,06,25,06,50,11.20
2012,06,25,06,51,11.20
2012,06,25,06,52,11.20
2012,06,25,06,53,11.30
2012,06,25,06,54,11.30
2012,06,25,06,55,11.30
2012,06,25,06,56,11.40
2012,06,25,06,57,11.40
2012,06,25,06,58,11.40
2012,06,25,06,59,11.40
2012,06,25,07,00,11.40
2012,06,25,07,01,11.40
2012,06,25,07,02,11.50
2012,06,25,07,03,11.60
2012,06,25,07,04,11.60
2012,06,25,07,05,11.60
2012,06,25,07,06,11.60
2012,06,25,07,07,11.70
2012,06,25,07,08,11.70
2012,06,25,07,09,11.80
2012,06,25,07,10,11.80
2012,06,25,07,11,11.80
2012,06,25,07,12,11.80
2012,06,25,07,13,11.90
2012,06,25,07,14,11.90
2012,06,25,07,15,12.00
2012,06,25,07,16,12.00
2012,06,25,07,17,12.10
2012,06,25,07,18,12.10
2012,06,25,07,19,12.20
2012,06,25,07,20,12.20
2012,06,25,07,21,12.30
2012,06,25,07,22,12.30
2012,06,25,07,23,12.30
2012,06,25,07,24,12.30
2012,06,25,07,25,12.40
2012,06,25,07,26,12.40
2012,06,25,07,27,12.50
2012,06,25,07,28,12.50
2012,06,25,07,29,12.50
2012,06,25,07,30,12.60
2012,06,25,07,31,12.60
2012,06,25,07,32,12.70
2012,06,25,07,33,12.70
2012,06,25,07,34,12.70
2012,06,25,07,35,12.70
2012,06,25,07,36,12.70
2012,06,25,07,37,12.70
2012,06,25,07,38,12.60
2012,06,25,07,39,12.60
2012,06,25,07,40,12.60
2012,06,25,07,41,12.60
2012,06,25,07,42,12.60
2012,06,25,07,43,12.60
2012,06,25,07,44,12.60
2012,06,25,07,45,12.50
2012,06,25,07,46,12.50
2012,06,25,07,47,12.50
2012,06,25,07,48,12.50
2012,06,25,07,49,12.50
2012,06,25,07,50,12.50
2012,06,25,07,51,12.50
2012,06,25,07,52,12.60
2012,06,25,07,53,12.60
2012,06,25,07,54,12.60
2012,06,25,07,55,12.60
2012,06,25,07,56,12.70
2012,06,25,07,57,12.70
2012,06,25,07,58,12.70
2012,06,25,07,59,12.60
2012,06,25,08,00,12.60
2012,06,25,08,01,12.50
2012,06,25,08,02,12.50
2012,06,25,08,03,12.30
2012,06,25,08,04,12.30
2012,06,25,08,05,12.30
2012,06,25,08,06,12.30
2012,06,25,08,07,12.30
2012,06,25,08,08,12.30
2012,06,25,08,09,12.40
2012,06,25,08,10,12.40
2012,06,25,08,11,12.40
2012,06,25,08,12,12.40
2012,06,25,08,13,12.40
2012,06,25,08,14,12.40
2012,06,25,08,15,12.50
2012,06,25,08,16,12.50
2012,06,25,08,17,12.50
2012,06,25,08,18,12.60
2012,06,25,08,19,12.60
2012,06,25,08,20,12.60
2012,06,25,08,21,12.70
2012,06,25,08,22,12.70
2012,06,25,08,23,12.80
2012,06,25,08,24,12.80
2012,06,25,08,25,12.80
2012,06,25,08,26,12.80
2012,06,25,08,27,12.80
2012,06,25,08,28,12.90
2012,06,25,08,29,13.00
2012,06,25,08,30,13.10
2012,06,25,08,31,13.20
2012,06,25,08,32,13.20
2012,06,25,08,33,13.30
2012,06,25,08,34,13.30
2012,06,25,08,35,13.40
2012,06,25,08,36,13.50
2012,06,25,08,37,13.50
2012,06,25,08,38,13.50
2012,06,25,08,39,13.50
2012,06,25,08,40,13.50
2012,06,25,08,41,13.60
2012,06,25,08,42,13.70
2012,06,25,08,43,13.70
2012,06,25,08,44,13.70
2012,06,25,08,45,13.70
2012,06,25,08,46,13.70
2012,06,25,08,47,13.80
2012,06,25,08,48,13.80
2012,06,25,08,49,13.80
2012,06,25,08,50,13.70
2012,06,25,08,51,13.70
2012,06,25,08,52,13.70
2012,06,25,08,53,13.70
2012,06,25,08,54,13.70
2012,06,25,08,55,13.60
2012,06,25,08,56,13.60
2012,06,25,08,57,13.60
2012,06,25,08,58,13.60
2012,06,25,08,59,13.60
2012,06,25,09,00,13.60
2012,06,25,09,01,13.60
2012,06,25,09,02,13.60
2012,06,25,09,03,13.50
2012,06,25,09,04,13.50
2012,06,25,09,05,13.50
2012,06,25,09,06,13.50
2012,06,25,09,07,13.50
2012,06,25,09,08,13.60
2012,06,25,09,09,13.60
2012,06,25,09,10,13.60
2012,06,25,09,11,13.60
2012,06,25,09,12,13.60
2012,06,25,09,13,13.60
2012,06,25,09,14,13.60
2012,06,25,09,15,13.70
2012,06,25,09,16,13.70
2012,06,25,09,17,13.70
2012,06,25,09,18,13.70
2012,06,25,09,19,13.70
2012,06,25,09,20,13.70
2012,06,25,09,21,13.70
2012,06,25,09,22,13.70
2012,06,25,09,23,13.70
2012,06,25,09,24,13.70
2012,06,25,09,25,13.70
2012,06,25,09,26,13.70
2012,06,25,09,27,13.70
2012,06,25,09,28,13.70
2012,06,25,09,29,13.70
2012,06,25,09,30,13.70
2012,06,25,09,31,13.70
2012,06,25,09,32,13.70
2012,06,25,09,33,13.70
2012,06,25,09,34,13.70
2012,06,25,09,35,13.70
2012,06,25,09,36,13.70
2012,06,25,09,37,13.70
2012,06,25,09,38,13.70
2012,06,25,09,39,13.80
2012,06,25,09,40,13.70
2012,06,25,09,41,13.70
2012,06,25,09,42,13.70
2012,06,25,09,43,13.70
2012,06,25,09,44,13.70
2012,06,25,09,45,13.70
2012,06,25,09,46,13.70
2012,06,25,09,47,13.80
2012,06,25,09,48,13.80
2012,06,25,09,49,13.80
2012,06,25,09,50,13.90
2012,06,25,09,51,13.90
2012,06,25,09,52,13.90
2012,06,25,09,53,13.90
2012,06,25,09,54,13.90
2012,06,25,09,55,14.00
2012,06,25,09,56,14.00
2012,06,25,09,57,14.00
2012,06,25,09,58,14.00
2012,06,25,09,59,14.00
2012,06,25,10,00,14.00
2012,06,25,10,01,14.10
2012,06,25,10,02,14.10
2012,06,25,10,03,14.20
2012,06,25,10,04,14.20
2012,06,25,10,05,14.20
2012,06,25,10,06,14.20
2012,06,25,10,07,14.20
2012,06,25,10,08,14.20
2012,06,25,10,09,14.30
2012,06,25,10,10,14.20
2012,06,25,10,11,14.20
2012,06,25,10,12,14.20
2012,06,25,10,13,14.20
2012,06,25,10,14,14.20
2012,06,25,10,15,14.20
2012,06,25,10,16,14.20
2012,06,25,10,17,14.20
2012,06,25,10,18,14.20
2012,06,25,10,19,14.20
2012,06,25,10,20,14.20
2012,06,25,10,21,14.20
2012,06,25,10,22,14.20
2012,06,25,10,23,14.20
2012,06,25,10,24,14.20
2012,06,25,10,25,14.20
2012,06,25,10,26,14.20
2012,06,25,10,27,14.30
2012,06,25,10,28,14.30
2012,06,25,10,29,14.30
2012,06,25,10,30,14.30
2012,06,25,10,31,14.30
2012,06,25,10,32,14.30
2012,06,25,10,33,14.30
2012,06,25,10,34,14.20
2012,06,25,10,35,14.30
2012,06,25,10,36,14.30
2012,06,25,10,37,14.30
2012,06,25,10,38,14.30
2012,06,25,10,39,14.30
2012,06,25,10,40,14.30
2012,06,25,10,41,14.30
2012,06,25,10,42,14.40
2012,06,25,10,43,14.40
2012,06,25,10,44,14.40
2012,06,25,10,45,14.50
2012,06,25,10,46,14.50
2012,06,25,10,47,14.40
2012,06,25,10,48,14.40
2012,06,25,10,49,14.40
2012,06,25,10,50,14.40
2012,06,25,10,51,14.40
2012,06,25,10,52,14.40
2012,06,25,10,53,14.50
2012,06,25,10,54,14.50
2012,06,25,10,55,14.60
2012,06,25,10,56,14.50
2012,06,25,10,57,14.60
2012,06,25,10,58,14.60
2012,06,25,10,59,14.60
2012,06,25,11,00,14.60
2012,06,25,11,01,14.70
2012,06,25,11,02,14.70
2012,06,25,11,03,14.80
2012,06,25,11,04,14.80
2012,06,25,11,05,14.80
2012,06,25,11,06,14.80
2012,06,25,11,07,14.80
2012,06,25,11,08,14.80
2012,06,25,11,09,14.80
2012,06,25,11,10,14.80
2012,06,25,11,11,14.80
2012,06,25,11,12,14.80
2012,06,25,11,13,14.80
2012,06,25,11,14,14.80
2012,06,25,11,15,14.80
2012,06,25,11,16,14.80
2012,06,25,11,17,14.80
2012,06,25,11,18,14.90
2012,06,25,11,19,15.00
2012,06,25,11,20,15.10
2012,06,25,11,21,15.20
2012,06,25,11,22,15.20
2012,06,25,11,23,15.20
2012,06,25,11,24,15.20
2012,06,25,11,25,15.30
2012,06,25,11,26,15.30
2012,06,25,11,27,15.30
2012,06,25,11,28,15.30
2012,06,25,11,29,15.30
2012,06,25,11,30,15.30
2012,06,25,11,31,15.40
2012,06,25,11,32,15.40
2012,06,25,11,33,15.50
2012,06,25,11,34,15.50
2012,06,25,11,35,15.60
2012,06,25,11,36,15.60
2012,06,25,11,37,15.70
2012,06,25,11,38,15.80
2012,06,25,11,39,16.00
2012,06,25,11,40,16.10
2012,06,25,11,41,16.10
2012,06,25,11,42,16.00
2012,06,25,11,43,15.90
2012,06,25,11,44,15.90
2012,06,25,11,45,15.90
2012,06,25,11,46,16.00
2012,06,25,11,47,16.10
2012,06,25,11,48,16.10
2012,06,25,11,49,16.10
2012,06,25,11,50,16.10
2012,06,25,11,51,16.10
2012,06,25,11,52,16.10
2012,06,25,11,53,16.20
2012,06,25,11,54,16.30
2012,06,25,11,55,16.30
2012,06,25,11,56,16.30
2012,06,25,11,57,16.30
2012,06,25,11,58,16.30
2012,06,25,11,59,16.40
2012,06,25,12,00,16.40
2012,06,25,12,01,16.40
2012,06,25,12,02,16.50
2012,06,25,12,03,16.60
2012,06,25,12,04,16.70
2012,06,25,12,05,16.80
2012,06,25,12,06,16.80
2012,06,25,12,07,16.90
2012,06,25,12,08,16.90
2012,06,25,12,09,16.90
2012,06,25,12,10,16.80
2012,06,25,12,11,16.80
2012,06,25,12,12,16.70
2012,06,25,12,13,16.60
2012,06,25,12,14,16.40
2012,06,25,12,15,16.40
2012,06,25,12,16,16.40
2012,06,25,12,17,16.40
2012,06,25,12,18,16.40
2012,06,25,12,19,16.40
2012,06,25,12,20,16.40
2012,06,25,12,21,16.40
2012,06,25,12,22,16.40
2012,06,25,12,23,16.40
2012,06,25,12,24,16.30
2012,06,25,12,25,16.30
2012,06,25,12,26,16.30
2012,06,25,12,27,16.30
2012,06,25,12,28,16.30
2012,06,25,12,29,16.30
2012,06,25,12,30,16.30
2012,06,25,12,31,16.20
2012,06,25,12,32,16.20
2012,06,25,12,33,16.10
2012,06,25,12,34,16.10
2012,06,25,12,35,16.00
2012,06,25,12,36,15.90
2012,06,25,12,37,15.80
2012,06,25,12,38,15.80
2012,06,25,12,39,15.80
2012,06,25,12,40,15.70
2012,06,25,12,41,15.70
2012,06,25,12,42,15.60
2012,06,25,12,43,15.60
2012,06,25,12,44,15.50
2012,06,25,12,45,15.50
2012,06,25,12,46,15.50
2012,06,25,12,47,15.40
2012,06,25,12,48,15.40
2012,06,25,12,49,15.50
2012,06,25,12,50,15.50
2012,06,25,12,51,15.50
2012,06,25,12,52,15.50
2012,06,25,12,53,15.60
2012,06,25,12,54,15.70
2012,06,25,12,55,15.70
2012,06,25,12,56,15.70
2012,06,25,12,57,15.80
2012,06,25,12,58,15.80
2012,06,25,12,59,15.80
2012,06,25,13,00,15.80
2012,06,25,13,01,15.80
2012,06,25,13,02,15.80
2012,06,25,13,03,15.90
2012,06,25,13,04,15.90
2012,06,25,13,05,15.90
2012,06,25,13,06,16.00
2012,06,25,13,07,16.10
2012,06,25,13,08,16.10
2012,06,25,13,09,16.20
2012,06,25,13,10,16.20
2012,06,25,13,11,16.20
2012,06,25,13,12,16.10
2012,06,25,13,13,16.00
2012,06,25,13,14,15.90
2012,06,25,13,15,15.70
2012,06,25,13,16,15.70
2012,06,25,13,17,15.60
2012,06,25,13,18,15.50
2012,06,25,13,19,15.30
2012,06,25,13,20,15.30
2012,06,25,13,21,15.20
2012,06,25,13,22,15.20
2012,06,25,13,23,15.10
2012,06,25,13,24,15.00
2012,06,25,13,25,15.00
2012,06,25,13,26,15.00
2012,06,25,13,27,15.00
2012,06,25,13,28,15.00
2012,06,25,13,29,15.00
2012,06,25,13,30,15.00
2012,06,25,13,31,15.00
2012,06,25,13,32,14.90
2012,06,25,13,33,14.90
2012,06,25,13,34,14.90
2012,06,25,13,35,15.00
2012,06,25,13,36,15.00
2012,06,25,13,37,15.10
2012,06,25,13,38,15.10
2012,06,25,13,39,15.10
2012,06,25,13,40,15.20
2012,06,25,13,41,15.20
2012,06,25,13,42,15.20
2012,06,25,13,43,15.30
2012,06,25,13,44,15.30
2012,06,25,13,45,15.30
2012,06,25,13,46,15.30
2012,06,25,13,47,15.30
2012,06,25,13,48,15.40
2012,06,25,13,49,15.40
2012,06,25,13,50,15.50
2012,06,25,13,51,15.50
2012,06,25,13,52,15.50
2012,06,25,13,53,15.40
2012,06,25,13,54,15.30
2012,06,25,13,55,15.30
2012,06,25,13,56,15.20
2012,06,25,13,57,15.20
2012,06,25,13,58,15.20
2012,06,25,13,59,15.20
2012,06,25,14,00,15.30
2012,06,25,14,01,15.30
2012,06,25,14,02,15.40
2012,06,25,14,03,15.40
2012,06,25,14,04,15.40
2012,06,25,14,05,15.40
2012,06,25,14,06,15.40
2012,06,25,14,07,15.40
2012,06,25,14,08,15.40
2012,06,25,14,09,15.40
2012,06,25,14,10,15.40
2012,06,25,14,11,15.50
2012,06,25,14,12,15.50
2012,06,25,14,13,15.60
2012,06,25,14,14,15.60
2012,06,25,14,15,15.80
2012,06,25,14,16,15.80
2012,06,25,14,17,15.80
2012,06,25,14,18,15.80
2012,06,25,14,19,15.80
2012,06,25,14,20,15.80
2012,06,25,14,21,15.90
2012,06,25,14,22,15.90
2012,06,25,14,23,16.00
2012,06,25,14,24,16.10
2012,06,25,14,25,16.10
2012,06,25,14,26,16.20
2012,06,25,14,27,16.20
2012,06,25,14,28,16.20
2012,06,25,14,29,16.20
2012,06,25,14,30,16.20
2012,06,25,14,31,16.30
2012,06,25,14,32,16.30
2012,06,25,14,33,16.40
2012,06,25,14,34,16.40
2012,06,25,14,35,16.40
2012,06,25,14,36,16.50
2012,06,25,14,37,16.60
2012,06,25,14,38,16.60
2012,06,25,14,39,16.60
2012,06,25,14,40,16.60
2012,06,25,14,41,16.70
2012,06,25,14,42,16.70
2012,06,25,14,43,16.70
2012,06,25,14,44,16.70
2012,06,25,14,45,16.70
2012,06,25,14,46,16.70
2012,06,25,14,47,16.70
2012,06,25,14,48,16.80
2012,06,25,14,49,16.90
2012,06,25,14,50,17.00
2012,06,25,14,51,17.00
2012,06,25,14,52,17.10
2012,06,25,14,53,17.10
2012,06,25,14,54,17.20
2012,06,25,14,55,17.20
2012,06,25,14,56,17.20
2012,06,25,14,57,17.10
2012,06,25,14,58,17.10
2012,06,25,14,59,17.20
2012,06,25,15,00,17.30
2012,06,25,15,01,17.30
2012,06,25,15,02,17.30
2012,06,25,15,03,17.30
2012,06,25,15,04,17.40
2012,06,25,15,05,17.50
2012,06,25,15,06,17.60
2012,06,25,15,07,17.70
2012,06,25,15,08,17.70
2012,06,25,15,09,17.80
2012,06,25,15,10,17.80
2012,06,25,15,11,17.90
2012,06,25,15,12,18.00
2012,06,25,15,13,18.10
2012,06,25,15,14,18.20
2012,06,25,15,15,18.30
2012,06,25,15,16,18.30
2012,06,25,15,17,18.40
2012,06,25,15,18,18.40
2012,06,25,15,19,18.40
2012,06,25,15,20,18.50
2012,06,25,15,21,18.60
2012,06,25,15,22,18.70
2012,06,25,15,23,18.80
2012,06,25,15,24,18.80
2012,06,25,15,25,18.90
2012,06,25,15,26,18.90
2012,06,25,15,27,18.80
2012,06,25,15,28,18.80
2012,06,25,15,29,18.80
2012,06,25,15,30,18.80
2012,06,25,15,31,18.70
2012,06,25,15,32,18.70
2012,06,25,15,33,18.70
2012,06,25,15,34,18.70
2012,06,25,15,35,18.70
2012,06,25,15,36,18.60
2012,06,25,15,37,18.60
2012,06,25,15,38,18.60
2012,06,25,15,39,18.60
2012,06,25,15,40,18.60
2012,06,25,15,41,18.60
2012,06,25,15,42,18.50
2012,06,25,15,43,18.50
2012,06,25,15,44,18.40
2012,06,25,15,45,18.40
2012,06,25,15,46,18.40
2012,06,25,15,47,18.50
2012,06,25,15,48,18.50
2012,06,25,15,49,18.50
2012,06,25,15,50,18.30
2012,06,25,15,51,18.20
2012,06,25,15,52,18.20
2012,06,25,15,53,18.10
2012,06,25,15,54,18.10
2012,06,25,15,55,18.10
2012,06,25,15,56,18.00
2012,06,25,15,57,17.90
2012,06,25,15,58,18.00
2012,06,25,15,59,18.10
2012,06,25,16,00,18.20
2012,06,25,16,01,18.20
2012,06,25,16,02,18.30
2012,06,25,16,03,18.20
2012,06,25,16,04,18.20
2012,06,25,16,05,18.20
2012,06,25,16,06,18.20
2012,06,25,16,07,18.20
2012,06,25,16,08,18.20
2012,06,25,16,09,18.20
2012,06,25,16,10,18.10
2012,06,25,16,11,18.10
2012,06,25,16,12,18.00
2012,06,25,16,13,17.90
2012,06,25,16,14,17.90
2012,06,25,16,15,17.90
2012,06,25,16,16,17.90
2012,06,25,16,17,17.90
2012,06,25,16,18,17.90
2012,06,25,16,19,17.90
2012,06,25,16,20,17.90
2012,06,25,16,21,17.90
2012,06,25,16,22,17.90
2012,06,25,16,23,17.90
2012,06,25,16,24,17.80
2012,06,25,16,25,17.70
2012,06,25,16,26,17.70
2012,06,25,16,27,17.70
2012,06,25,16,28,17.60
2012,06,25,16,29,17.50
2012,06,25,16,30,17.40
2012,06,25,16,31,17.40
2012,06,25,16,32,17.40
2012,06,25,16,33,17.40
2012,06,25,16,34,17.30
2012,06,25,16,35,17.30
2012,06,25,16,36,17.30
2012,06,25,16,37,17.30
2012,06,25,16,38,17.30
2012,06,25,16,39,17.30
2012,06,25,16,40,17.30
2012,06,25,16,41,17.30
2012,06,25,16,42,17.30
2012,06,25,16,43,17.20
2012,06,25,16,44,17.20
2012,06,25,16,45,17.20
2012,06,25,16,46,17.20
2012,06,25,16,47,17.20
2012,06,25,16,48,17.20
2012,06,25,16,49,17.20
2012,06,25,16,50,17.20
2012,06,25,16,51,17.20
2012,06,25,16,52,17.20
2012,06,25,16,53,17.20
2012,06,25,16,54,17.10
2012,06,25,16,55,17.00
2012,06,25,16,56,16.90
2012,06,25,16,57,16.80
2012,06,25,16,58,16.80
2012,06,25,16,59,16.70
2012,06,25,17,00,16.70
2012,06,25,17,01,16.70
2012,06,25,17,02,16.60
2012,06,25,17,03,16.50
2012,06,25,17,04,16.40
2012,06,25,17,05,16.30
2012,06,25,17,06,16.20
2012,06,25,17,07,16.20
2012,06,25,17,08,16.10
2012,06,25,17,09,16.10
2012,06,25,17,10,16.10
2012,06,25,17,11,16.00
2012,06,25,17,12,15.90
2012,06,25,17,13,15.80
2012,06,25,17,14,15.80
2012,06,25,17,15,15.80
2012,06,25,17,16,15.80
2012,06,25,17,17,15.80
2012,06,25,17,18,15.90
2012,06,25,17,19,16.00
2012,06,25,17,20,16.00
2012,06,25,17,21,16.00
2012,06,25,17,22,16.10
2012,06,25,17,23,15.90
2012,06,25,17,24,15.80
2012,06,25,17,25,15.70
2012,06,25,17,26,15.60
2012,06,25,17,27,15.40
2012,06,25,17,28,15.20
2012,06,25,17,29,15.20
2012,06,25,17,30,15.00
2012,06,25,17,31,14.80
2012,06,25,17,32,14.60